Lapse_Rate
7.9 8.6 8.2 8.5 8.1 7.8 8.6 6.5 6.4 7.0 8.2 8.1 7.6 7.4 7.6 8.0 9.1 7.4 7.0 7.9 7.3 6.9 6.9 5.8 6.1 5.4 5.2 5.9 6.4 4.5 5.5 6.2 6.8 6.5 6.1 5.8 5.8 5.3 6.5 6.0 5.8 6.4 6.4 5.8 5.5 5.6 6.0
8.3 7.9 7.2 8.1 8.3 7.9 7.8 6.9 5.6 6.4 6.8 7.3 7.4 7.3 7.5 7.6 8.2 7.1 6.9 7.6 7.3 6.7 6.9 6.6 5.8 5.5 6.1 6.5 5.3 4.6 4.7 5.2 4.9 5.0 4.3 4.6 5.7 4.7 5.1 6.0 6.2 6.1 5.7 5.9 5.8 6.1 5.8
9.0 8.2 7.5 6.8 7.4 8.0 7.9 7.5 5.3 5.8 6.3 6.7 6.9 6.6 7.4 7.8 7.4 7.1 7.2 7.5 7.4 7.6 7.3 7.6 7.1 5.7 5.0 6.7 4.9 4.1 4.0 3.8 4.9 5.3 4.5 4.4 5.3 5.0 4.9 6.4 6.1 6.0 6.5 6.5 6.2 6.4 6.4
7.4 7.6 7.6 6.3 5.8 6.8 6.7 5.6 5.4 5.0 5.3 5.9 6.3 6.6 7.0 7.5 7.6 7.6 7.0 7.3 7.0 7.5 8.0 7.6 7.0 5.4 6.4 5.7 4.6 4.9 4.1 6.0 5.4 5.5 5.1 4.9 4.4 4.0 5.3 5.3 5.7 6.5 6.5 6.5 6.5 6.4 6.4
6.6 6.4 6.3 5.5 5.8 5.3 5.8 5.0 5.0 4.7 4.7 5.3 5.9 6.7 6.6 7.0 7.0 7.4 7.5 7.7 7.5 7.3 7.3 6.7 4.3 5.6 6.7 6.3 5.4 5.2 4.5 5.4 5.8 5.4 5.1 5.9 4.1 5.3 5.9 6.5 6.5 6.5 6.5 6.5 6.5 6.2 6.5
6.5 5.4 4.7 5.0 4.5 4.9 4.7 4.6 4.6 4.5 4.4 4.3 5.3 6.2 5.7 6.3 6.5 6.3 6.3 6.8 8.0 6.0 5.6 5.5 6.0 6.1 6.9 7.1 5.6 5.5 6.1 5.7 6.2 5.6 4.6 4.6 3.4 6.5 6.5 6.5 6.5 6.5 6.5 6.5 6.5 6.5 6.5
5.9 5.7 4.6 4.3 4.1 4.2 4.6 4.3 4.3 4.0 3.9 3.8 4.3 5.1 5.2 5.3 5.4 5.3 4.5 3.0 4.4 6.3 6.3 6.8 7.0 6.2 6.8 6.6 5.8 6.5 6.9 6.2 6.7 5.5 6.5 5.7 6.5 6.5 6.5 6.5 6.5 6.5 6.5 6.5 6.5 6.5 6.5
6.6 5.6 5.1 4.4 3.6 3.8 3.9 4.1 4.1 4.0 3.5 3.6 3.7 4.6 4.8 5.0 5.0 5.0 2.7 3.8 4.6 5.1 6.5 6.1 5.8 5.6 5.9 5.5 5.8 5.8 6.2 5.7 5.8 6.5 6.4 6.5 6.5 6.5 6.5 6.5 6.5 6.5 6.5 6.5 6.5 6.5 6.5
6.4 5.9 4.9 4.1 3.5 3.4 3.2 3.7 3.9 4.0 3.6 3.2 3.1 3.8 4.1 4.1 5.0 2.9 2.7 4.1 4.9 3.6 5.2 6.0 6.1 5.6 5.9 6.2 6.3 6.0 5.5 5.9 6.2 6.5 6.5 6.5 6.5 6.5 6.5 6.5 6.5 6.5 6.5 6.5 6.5 6.5 6.5
5.2 4.5 4.4 3.5 2.9 2.7 3.1 3.1 3.6 3.7 3.6 2.9 3.1 3.3 3.8 4.3 4.0 2.9 3.5 4.5 4.3 4.0 6.5 6.5 6.1 6.5 6.9 6.5 6.0 6.7 6.3 6.2 6.2 6.5 6.5 6.5 6.4 6.5 6.5 6.5 6.5 6.5 6.5 6.5 6.5 6.5 6.5
3.7 3.7 3.6 3.5 2.7 2.7 2.6 2.9 3.0 3.3 3.1 3.1 2.8 3.3 3.5 4.2 2.7 3.2 4.1 3.4 3.4 3.9 6.5 6.5 5.9 6.6 6.4 6.1 6.6 6.4 6.3 5.6 6.5 6.5 6.5 6.5 6.5 6.5 6.5 6.5 6.5 6.5 6.5 6.5 6.5 6.5 6.5
3.2 3.5 3.1 3.1 3.1 2.6 2.4 2.2 2.5 2.8 2.7 2.6 2.8 3.0 3.4 2.6 1.3 3.3 3.0 2.5 2.8 6.5 6.5 6.5 6.1 6.4 6.4 6.2 6.4 6.2 6.1 6.0 6.6 6.5 6.5 6.5 6.4 6.5 6.5 6.5 6.5 6.5 6.5 6.5 6.5 6.5 6.5
3.0 3.2 3.0 2.7 2.7 2.8 2.3 2.0 2.1 2.2 2.3 2.2 2.5 2.5 2.6 3.3 3.5 2.4 1.9 2.7 6.5 6.5 6.5 6.5 6.5 6.5 6.5 6.5 6.5 6.5 6.5 6.5 6.5 6.5 6.5 6.5 6.5 6.5 6.4 6.5 6.5 6.5 6.5 6.5 6.5 6.5 6.5
2.8 2.9 3.0 2.6 2.5 2.6 2.4 1.8 1.8 1.8 1.7 1.7 1.9 2.0 2.5 3.2 3.1 2.3 1.7 5.9 6.5 6.5 6.5 6.5 6.5 6.5 6.5 6.5 6.5 6.5 6.5 6.5 6.5 6.5 6.5 6.5 6.5 6.5 6.5 6.5 6.5 6.5 6.5 6.5 6.5 6.5 6.5
2.3 2.6 2.5 2.5 2.1 2.1 2.3 2.0 1.5 1.2 1.1 1.1 1.2 -0.3 0.8 1.3 2.6 1.3 2.0 6.5 6.5 6.5 6.5 6.5 6.5 6.5 6.5 6.5 6.5 6.5 6.5 6.5 6.5 6.5 6.5 6.5 6.5 6.5 6.5 6.5 6.5 6.5 6.5 6.5 6.5 6.5 6.5
2.3 2.3 2.3 2.0 1.8 1.6 1.6 2.0 1.6 1.0 0.7 0.8 -0.8 0.1 1.4 2.0 1.0 0.3 5.4 6.5 6.5 6.5 6.5 6.5 6.5 6.5 6.5 6.5 6.5 6.5 6.5 6.5 6.5 6.5 6.4 6.5 6.5 6.5 6.5 6.5 6.5 6.5 6.5 6.5 6.5 6.5 6.5
2.2 2.2 2.2 2.0 1.5 1.4 1.2 1.1 1.4 1.2 0.6 0.2 -0.3 1.1 2.1 1.5 0.3 1.3 6.5 6.5 6.5 6.6 6.5 6.5 6.5 6.5 6.5 6.5 6.5 6.5 6.5 6.5 6.5 6.5 6.3 6.5 6.5 6.5 6.5 6.5 6.5 6.5 6.5 6.5 6.5 6.5 6.5
2.4 2.1 2.1 1.8 1.5 1.2 1.1 0.9 0.7 0.8 0.5 -0.2 -0.1 4.3 2.1 0.4 2.8 4.2 6.5 6.5 6.3 6.5 6.4 6.5 6.5 6.5 6.5 6.5 6.5 6.5 6.5 6.5 5.4 5.7 6.5 6.5 6.5 6.5 6.5 6.5 6.5 6.5 6.5 6.5 6.5 6.5 6.5
2.3 2.3 2.0 1.8 1.4 1.3 1.1 0.9 0.8 0.5 0.4 -1.0 1.2 -0.7 1.3 1.9 6.5 6.5 6.4 6.5 6.4 6.5 6.5 6.5 6.5 6.5 6.5 6.5 6.5 6.5 6.5 6.3 5.3 6.3 6.5 6.5 6.5 6.5 6.5 6.5 6.5 6.5 6.5 6.5 6.5 6.5 6.5
2.5 2.2 2.2 2.0 1.6 1.1 1.0 0.8 0.7 0.6 0.5 -0.9 1.6 6.5 1.6 0.9 3.0 6.3 6.5 6.5 6.5 6.1 6.4 6.4 6.5 6.4 6.5 6.5 6.5 6.5 6.5 6.5 5.4 5.9 6.2 6.1 6.5 6.5 6.5 6.5 6.5 6.5 6.5 6.5 6.5 6.5 6.5
3.4 2.6 2.5 2.2 1.9 1.5 1.2 1.0 0.7 0.4 0.8 -0.4 0.6 4.3 4.9 6.5 5.8 6.2 6.4 6.5 6.5 6.5 6.2 6.1 6.5 6.5 6.5 6.5 6.5 6.5 6.5 6.5 6.3 6.4 6.2 6.5 6.5 6.5 6.5 6.5 6.5 6.5 6.5 6.5 6.5 6.5 6.5
4.5 3.9 3.6 3.3 2.6 2.0 1.4 1.2 1.1 0.7 0.6 -1.8 2.2 3.8 3.2 4.4 5.1 6.4 6.5 6.5 6.5 6.5 6.5 6.5 6.5 6.5 6.5 6.5 6.5 6.5 6.5 6.5 6.5 6.5 6.5 6.4 6.5 6.5 6.5 6.5 6.5 6.5 6.5 6.5 6.5 6.5 6.5
5.7 4.6 4.5 4.2 3.5 2.7 2.1 1.8 1.6 1.3 1.0 -0.6 -0.5 1.5 2.9 5.0 5.8 6.5 6.5 6.5 6.5 6.4 6.1 6.1 6.3 6.5 6.5 6.4 5.5 4.9 4.7 4.8 5.9 6.5 6.5 6.5 6.5 6.5 6.5 6.5 6.5 6.5 6.5 6.5 6.5 6.5 6.5
5.9 5.4 5.7 4.7 4.1 3.5 3.2 2.8 2.4 2.3 1.3 -0.4 -0.4 0.1 3.0 6.5 6.4 6.5 6.5 6.4 6.5 6.3 6.5 6.3 5.7 6.3 5.8 5.4 4.3 4.0 4.3 4.8 5.1 5.8 5.0 6.5 6.5 6.5 6.5 6.5 6.5 6.5 6.5 6.5 6.5 6.5 6.5
5.4 6.4 6.0 6.4 5.1 4.0 3.5 3.5 2.8 2.7 2.7 0.0 -0.8 1.1 2.2 6.5 5.4 5.9 6.3 6.3 5.9 5.6 6.2 6.0 5.4 5.1 4.5 5.8 6.5 6.5 6.5 6.5 6.5 6.5 6.5 6.1 6.5 6.5 6.5 6.5 6.5 6.5 6.5 6.5 6.5 6.5 6.5
5.1 5.8 6.1 5.9 5.7 5.4 5.0 4.0 3.6 3.1 3.0 0.4 -0.4 -0.3 1.4 4.3 6.0 5.5 5.8 6.1 6.5 6.5 6.3 5.8 5.6 4.6 5.6 5.9 6.5 6.5 6.5 6.5 6.5 6.5 6.2 6.5 6.5 6.5 6.5 6.5 6.5 6.5 6.5 6.2 6.4 6.5 6.5
4.7 5.1 5.9 5.9 5.8 5.6 5.3 4.8 4.3 4.0 3.4 1.7 0.7 0.8 1.6 3.1 2.2 4.8 5.1 5.8 4.7 5.4 6.5 5.2 6.0 6.0 5.4 6.5 6.5 6.5 6.5 6.5 6.5 6.5 6.5 6.5 6.5 6.5 6.5 6.5 6.5 6.5 6.1 5.8 6.5 6.5 5.3
4.7 4.6 4.8 5.3 5.7 5.7 5.3 5.2 4.9 4.6 3.9 2.7 1.9 1.8 2.8 2.5 1.5 3.8 5.0 4.6 4.5 4.0 6.5 5.0 5.8 5.6 6.0 6.5 6.5 6.5 6.5 6.5 6.5 6.5 6.5 6.5 6.5 6.5 6.5 6.5 6.5 5.4 6.2 6.5 5.9 4.9 4.6
4.8 4.7 4.6 4.8 5.5 5.5 5.6 5.0 4.9 4.6 4.6 3.9 2.6 2.3 2.5 3.3 2.6 2.1 3.5 4.9 5.7 5.6 3.9 3.6 5.1 5.1 4.3 6.5 6.5 6.5 6.5 6.5 6.5 6.5 6.5 6.5 6.5 6.5 6.5 6.5 5.8 3.9 4.2 3.0 3.6 3.5 3.4
Wind_Speed
21 21 22 24 25 25 25 25 25 25 25 26 30 36 28 21 20 16 16 19 21 23 30 35 20 16 7 9 6 11 16 7 4 3 4 5 5 5 5 5 4 5 3 5 4 5 4
21 20 21 22 25 25 25 25 24 24 24 23 26 30 34 25 20 18 17 20 27 25 24 31 25 13 14 17 9 13 15 5 6 6 7 7 3 5 6 4 5 2 5 6 4 3 4
22 21 21 22 22 23 24 24 23 23 23 22 23 26 27 29 24 22 19 23 26 27 23 22 24 15 23 12 11 17 12 4 5 5 8 4 3 6 3 5 2 2 4 4 5 2 2
22 22 21 22 21 22 22 23 23 22 21 22 24 25 25 23 22 19 20 21 23 23 20 16 15 11 8 9 19 11 10 11 9 6 5 6 6 8 4 4 5 5 5 3 1 1 0
22 22 22 21 22 21 22 21 22 21 21 21 22 23 23 21 16 16 15 15 13 14 19 8 10 7 7 14 6 9 6 4 6 6 7 4 6 5 4 4 4 5 3 3 1 4 2
21 22 22 21 20 20 21 21 20 20 20 20 19 20 20 20 14 11 10 16 27 7 3 4 5 9 6 4 4 7 4 3 6 4 6 8 6 4 4 4 4 4 3 2 2 3 3
21 22 21 21 20 20 20 20 19 18 19 20 19 19 18 20 19 14 5 4 6 8 18 14 8 9 2 4 2 6 3 5 3 6 5 5 7 4 3 2 3 5 4 3 1 1 2
21 21 22 21 20 19 19 19 18 18 19 19 16 15 15 15 14 17 5 5 3 3 10 11 8 4 2 1 6 14 5 5 5 5 3 6 4 1 2 4 5 5 4 2 2 2 2
20 22 22 22 20 19 19 18 19 18 20 20 15 12 12 15 5 6 6 4 1 3 6 5 4 5 4 4 4 9 6 3 7 6 6 6 2 1 3 4 5 5 3 2 1 6 2
21 20 22 21 20 19 18 18 18 19 20 19 14 13 13 14 6 1 2 1 3 4 5 9 9 4 4 2 5 3 4 3 6 4 4 6 3 3 3 4 3 3 3 2 2 4 2
20 19 20 21 20 20 20 19 18 19 20 17 15 14 13 8 2 2 3 7 6 2 7 14 7 4 5 6 2 9 5 7 5 3 5 2 2 4 6 3 3 2 2 1 1 1 4
19 18 19 20 20 20 20 20 19 18 19 16 14 13 10 4 2 1 5 5 3 7 4 8 6 6 4 5 4 4 5 5 2 5 6 3 1 2 1 2 2 1 2 3 3 3 3
18 19 19 20 20 20 20 21 21 19 16 15 12 12 6 2 3 3 2 3 6 7 3 4 3 6 7 5 3 3 4 5 3 4 4 5 3 1 2 2 4 2 5 3 5 2 5
19 19 19 22 21 20 20 20 21 21 18 15 11 8 3 1 2 3 3 6 10 5 5 2 2 3 2 3 3 2 3 4 5 3 3 4 5 3 3 4 1 3 5 4 4 1 4
17 17 18 21 21 21 21 21 22 20 18 16 9 2 2 2 0 3 5 6 6 4 2 4 1 1 2 2 3 3 2 3 1 2 4 3 0 2 1 2 2 1 2 3 0 2 3
16 17 17 18 20 21 22 22 23 21 16 9 2 2 3 4 2 3 6 4 2 1 2 1 1 3 2 2 1 2 3 2 3 1 0 0 2 3 2 1 2 1 3 2 1 2 4
15 16 18 18 20 21 22 23 25 24 21 3 3 3 3 2 2 6 4 3 2 1 1 1 1 2 2 1 3 3 1 1 2 1 4 2 2 3 2 5 7 3 3 2 1 3 2
13 14 16 18 20 21 23 24 25 25 21 4 3 3 3 1 4 2 2 3 1 0 1 2 1 2 1 3 1 2 4 4 7 7 4 4 3 3 8 3 6 3 5 6 3 4 3
13 14 16 17 19 21 23 25 26 23 15 1 2 2 2 3 3 2 1 3 2 3 2 1 2 2 0 2 1 1 1 1 8 7 5 4 2 2 6 4 1 4 5 5 3 2 7
11 12 13 16 18 20 22 25 26 26 14 2 3 3 4 4 1 5 3 1 2 2 2 2 2 1 2 2 2 2 2 2 5 4 5 3 3 6 6 4 4 5 6 7 7 5 4
10 12 13 14 16 19 22 25 27 28 12 3 4 0 2 2 4 2 2 4 2 2 2 3 2 4 3 2 1 3 1 0 1 3 3 3 4 4 7 11 8 12 13 9 14 14 8
9 10 11 12 13 15 19 23 27 30 10 4 3 2 2 0 1 3 3 5 6 2 5 3 3 2 2 4 5 3 2 3 5 2 5 2 4 2 5 9 6 10 14 16 21 20 20
9 7 9 10 11 13 16 20 24 28 11 3 2 2 3 2 1 3 2 2 3 2 3 4 4 1 3 6 4 5 6 4 4 7 6 4 2 2 5 5 8 9 10 16 7 6 16
11 7 7 7 9 10 11 14 19 22 12 2 1 2 3 2 1 3 1 1 3 3 3 2 4 4 4 1 5 3 4 7 7 7 6 4 3 2 4 6 2 6 2 5 11 10 14
12 11 7 6 6 5 7 9 12 14 14 3 1 2 3 3 2 4 2 3 3 4 3 4 5 4 1 3 2 5 3 2 1 3 7 6 3 3 2 2 9 9 1 6 7 7 9
12 12 11 8 6 5 4 5 6 9 11 3 1 1 2 3 4 2 1 1 2 2 5 4 2 1 2 2 2 1 3 3 2 2 5 5 3 3 1 2 5 5 2 2 3 6 7
14 12 12 10 9 6 5 5 3 4 6 3 1 0 2 2 4 3 3 4 3 1 3 3 2 2 2 1 2 4 4 3 3 4 5 4 4 11 10 7 9 10 4 2 1 6 5
17 16 14 14 12 9 7 7 5 3 1 2 1 2 2 2 5 5 4 4 2 2 2 2 3 1 2 1 2 3 3 4 2 3 6 7 7 5 5 6 11 7 4 7 5 1 4
18 20 19 17 15 13 10 10 9 7 5 3 1 1 1 2 5 3 4 4 4 5 4 2 3 3 4 2 2 1 3 2 4 4 2 3 7 6 11 8 5 7 7 8 3 4 6
Wind_Direction
23 19 19 18 22 27 28 26 23 21 17 14 28 28 25 43 44 43 37 46 59 68 94 94 93 48 36 70 40 334 350 357 22 65 55 117 94 107 112 108 75 77 125 74 102 81 82
21 21 22 20 17 22 24 28 25 22 22 20 25 28 35 33 50 50 39 56 68 75 99 106 101 102 70 57 351 348 353 3 42 74 62 59 102 110 86 71 74 57 88 110 74 68 54
18 19 20 23 19 18 25 22 26 21 21 17 18 19 28 26 47 53 55 76 65 67 85 94 101 91 56 40 346 329 353 351 350 64 71 22 83 77 112 91 94 70 74 59 18 358 60
16 17 16 17 23 17 20 22 21 21 18 20 17 13 14 20 37 46 61 81 60 62 64 81 64 69 72 352 333 7 349 38 31 37 76 39 57 88 62 125 44 72 49 89 259 143 247
22 15 16 14 15 18 15 21 19 17 16 19 20 11 12 16 4 16 60 51 61 57 51 61 39 65 55 327 359 325 350 19 11 19 30 40 61 78 46 77 49 17 160 180 270 211 161
20 20 13 13 14 13 16 16 17 11 11 12 19 14 14 15 7 339 3 357 52 43 33 35 47 69 5 37 312 308 312 338 52 13 26 37 49 73 35 65 173 172 125 116 177 214 202
19 18 17 11 10 10 11 11 11 8 5 6 9 12 14 15 26 31 4 13 10 24 50 74 83 87 139 282 289 341 351 355 27 43 79 26 70 105 134 72 128 104 98 123 202 324 273
18 17 13 12 6 7 7 7 5 1 359 359 359 4 1 9 26 26 51 61 55 171 65 45 62 53 24 31 25 4 11 64 43 79 53 40 73 208 111 62 74 70 99 2 326 61 269
13 15 14 11 6 6 5 4 360 358 356 354 352 355 349 349 23 50 74 91 254 3 74 31 54 39 314 20 45 349 18 15 66 56 57 103 147 323 76 51 80 41 85 55 288 327 302
10 16 14 13 5 1 360 0 2 356 358 355 356 347 349 345 49 313 82 274 253 184 91 4 9 24 349 312 38 355 27 66 45 100 82 74 338 52 63 72 78 91 3 48 30 41 266
7 15 16 13 5 2 2 4 5 2 356 355 352 351 347 36 171 53 280 326 323 101 60 311 320 257 309 96 193 360 12 37 63 13 88 264 73 38 62 40 60 170 281 252 245 65 50
7 9 12 14 11 7 3 2 1 1 360 358 353 354 353 16 37 227 323 340 39 45 33 331 332 334 21 28 26 357 19 46 96 52 45 115 173 79 146 19 94 260 30 23 59 68 12
7 5 8 10 9 6 2 0 357 356 355 358 354 348 357 12 305 297 33 36 51 70 286 299 352 345 7 26 45 48 44 35 65 73 360 353 5 42 80 58 345 58 52 356 359 353 229
3 7 6 5 7 5 0 358 357 352 349 347 344 333 324 235 310 346 47 49 71 218 208 183 284 14 57 339 354 68 65 29 9 72 102 121 346 186 182 194 20 40 120 141 208 302 276
4 8 6 3 3 3 1 357 354 351 345 340 329 355 347 270 51 94 65 50 154 211 174 169 174 170 302 254 173 139 110 152 30 50 121 112 309 66 158 21 89 82 15 204 242 231 274
4 1 3 3 2 2 359 358 354 349 343 342 28 26 296 320 122 83 66 101 83 46 63 63 189 167 140 289 126 108 177 189 145 59 238 172 99 209 185 103 21 201 107 84 56 284 278
4 359 358 359 1 1 359 358 356 354 347 140 57 32 268 350 48 54 88 84 71 26 37 164 9 62 81 85 25 45 64 307 116 99 11 355 38 298 90 205 182 145 211 180 219 229 225
358 359 359 358 357 1 358 358 360 358 355 42 91 32 313 20 49 28 92 128 294 254 313 302 357 352 335 340 4 154 184 207 169 153 170 215 140 241 228 246 196 176 182 159 135 246 236
349 357 358 356 356 358 358 357 358 2 12 8 77 214 322 68 95 14 277 125 157 156 220 257 297 261 310 268 241 228 226 201 165 161 183 178 224 343 345 358 70 201 191 173 134 105 223
346 352 356 356 355 358 358 356 356 357 358 84 84 32 336 44 39 118 138 234 166 193 192 188 247 34 346 284 240 259 257 228 198 192 156 144 215 202 200 205 146 211 196 190 160 189 212
341 347 352 357 356 358 357 358 356 356 1 94 27 160 189 346 350 51 99 170 173 253 267 195 206 199 196 262 278 239 269 88 155 203 153 161 247 214 252 262 253 255 248 207 212 218 208
331 343 346 351 355 358 0 1 359 358 358 76 87 70 13 307 326 349 317 222 187 205 168 255 228 187 201 207 198 236 193 208 210 162 174 183 269 325 275 262 259 256 248 232 228 232 243
315 336 339 344 348 354 2 5 5 5 23 78 348 354 104 262 70 75 240 263 261 179 213 196 188 171 265 250 228 220 215 232 213 168 197 173 208 11 271 330 308 284 243 221 193 197 217
302 307 324 333 341 347 358 7 9 12 33 104 204 108 63 284 141 203 243 230 261 257 280 277 167 161 231 292 293 275 232 233 212 224 183 160 153 167 272 346 325 250 261 176 199 231 217
290 295 298 315 322 331 342 358 11 14 17 76 297 110 112 291 239 301 233 225 296 295 263 249 242 213 128 9 339 333 336 312 261 214 202 182 133 293 276 250 291 300 225 168 173 273 217
274 279 288 292 299 303 305 326 2 9 15 79 29 320 105 115 252 239 272 286 209 228 322 252 334 238 96 113 85 295 264 261 267 92 49 125 149 164 353 290 265 248 216 155 106 286 201
257 265 273 273 277 274 271 269 301 349 9 78 260 206 93 148 253 184 206 190 173 162 201 295 294 304 13 141 176 182 248 231 247 199 173 142 199 221 237 262 279 256 216 90 165 247 175
256 254 253 255 254 253 247 246 243 253 320 91 264 281 119 213 272 198 219 187 161 154 178 251 30 332 47 190 191 234 200 242 244 198 181 173 164 196 193 224 268 178 74 175 219 317 186
262 250 249 246 245 243 234 231 225 220 218 170 251 161 64 187 258 274 239 247 203 192 153 216 196 191 208 108 249 334 246 241 189 264 143 231 195 184 188 218 238 215 209 229 219 204 212